Regional Weather Roundup
Issued by NWS Glasgow, MT

Home | Current Version | Previous Version | Text Only | Print | Product List | Glossary On
Versions: 1 2 3 4 5 6 7 8 9 10 11 12 13 14 15 16 17 18 19 20 21 22 23 24 25 26 27
000
ASUS45 KGGW 231515
RWRGGW
HOURLY REGIONAL WEATHER ROUNDUP FOR NORTHEAST MONTANA
NATIONAL WEATHER SERVICE GLASGOW MONTANA
900 AM MDT FRI JUN 23 2017

NOTE: "FAIR" INDICATES FEW OR NO CLOUDS BELOW 12,000 FEET WITH NO
SIGNIFICANT WEATHER AND/OR OBSTRUCTIONS TO VISISBILITY.

NORTHEAST MONTANA


CITY           SKY/WX    TMP DP  RH WIND       PRES   REMARKS
GLASGOW        PTSUNNY   55  38  52 NW15      30.22S
PLENTYWOOD       N/A     54  39  57 NW14G24     N/A
WOLF POINT     MOSUNNY   59  35  40 NW20G26   30.20S
JORDAN           N/A     58  35  42 NW15      30.25S
WINNETT          N/A     58  28  32 NW8G18      N/A
SIDNEY         MOSUNNY   59  36  42 NW23G31   30.16F
GLENDIVE       PTSUNNY   54  37  52 NW14      30.21S
MALTA            N/A     55  40  56 SW7         N/A

FORT PECK REPORTS


CITY           SKY/WX    TMP DP  RH WIND       PRES   REMARKS
FORT PECK        N/A     56  38  50 NW9G18      N/A
THE PINES        N/A     58  32  37 CALM        N/A

SOUTHEAST MONTANA


CITY           SKY/WX    TMP DP  RH WIND       PRES   REMARKS
BILLINGS       MOSUNNY   54  37  52 S5        30.31S
MILES CITY     MOSUNNY   60  30  32 NW17G26   30.25R
BAKER          PTSUNNY   54  31  41 NW20G33   30.22R
LIVINGSTON     SUNNY     50  36  58 CALM      30.32F

CENTRAL MONTANA


CITY           SKY/WX    TMP DP  RH WIND       PRES   REMARKS
HAVRE          PTSUNNY   57  40  52 W7        30.29S
LEWISTOWN      CLOUDY    52  39  61 VRB3      30.32R
GREAT FALLS    MOSUNNY   53  38  56 SW3       30.32S
CUT BANK       PTSUNNY   50  41  71 N9        30.32S
HELENA         SUNNY     53  38  56 CALM      30.32S
BUTTE          SUNNY     50  33  52 VRB3      30.33F
BOZEMAN        SUNNY     53  36  52 VRB3      30.32F

WESTERN MONTANA


CITY           SKY/WX    TMP DP  RH WIND       PRES   REMARKS
MISSOULA       SUNNY     53  39  59 S3        30.30F
KALISPELL      NOT AVBL

NORTH DAKOTA


CITY           SKY/WX    TMP DP  RH WIND       PRES   REMARKS
WILLISTON      SUNNY     57  39  51 NW23G30   30.14S
DICKINSON      PTSUNNY   55  33  43 NW24G33   30.13R
MINOT          PTSUNNY   57  39  51 NW21G29   30.02S
BISMARCK       CLOUDY    57  36  45 NW28G36   30.07R

SOUTHERN SASKATCHEWAN


CITY           SKY/WX    TMP DP  RH WIND       PRES   REMARKS
REGINA         MOSUNNY   52  37  58 NW29G37   30.11S
MOOSE JAW      MOSUNNY   52  39  62 NW22G31   30.15S
ESTEVAN        PTSUNNY   52  41  66 NW25G35   30.07S
SWIFT CURRENT  SUNNY     48  41  76 W8        30.20S





USA.gov is the U.S. government's official web portal to all federal, state and local government web resources and services.